Zurück zum Katalog

STARLINK-37429

AktivKommunikationVLEO
NORAD 69523·PAYLOAD·🇺🇸 United States

Gestartet Jun 12, 2026 von Cape Canaveral Space Force Station

Loading…

Nächste Überflüge (nächste 24 Stunden)

TLE

AktuellSource: CelesTrak SupGP

Epoche: Sep 15, 2026, 04:04 UTC

1 69523C 26133R   26258.16993056 -.00031992  00000+0 -94523-3 0  2581
2 69523  53.1568 254.4885 0001250  84.8857  66.8241 15.34406322    17

Verfolge STARLINK-37429 in Echtzeit mit AllMySat

Download on the App Store